Showing default

ASBM-1, 60422

Orbit data source: Space-Track

ASBM-1, 60422 is a Norwegian payload satellite in HEO that was launched on Mon, 12 Aug 2024 UTC via an FALCON 9 launch vehicle from the Air Force Western Test Range (AFWTR). Payloads include a variety of satellites, spacecraft, and rockets equipped with specific instruments for various scientific and technological missions. These include communications satellites like Starlink; space stations such as the ISS; scientific satellites like the Hubble; Earth observation satellites from companies like Planet Labs, Umbra, and HawkEye 360; GPS; miniature CubeSats for education and research; and military/defense satellites.

Loading next visibility...
ASBM-1 details
Identifier
60422, 2024-143A
Orbit
HEO
Last TLE update3 weeks ago
Origin
Flag of NOSPNOR/SFSSC (NO / NOR)
ManufacturerNGIS SSG
MissionOperational spacecraft
Bus & MotorGEOSTAR-3, BT-4?
Mass3,695 kg wet, 2,035 kg dry
Launch date (UTC)
2024-08-12 (4 months ago)
Launch vehicle
FALCON 9
Launch site
Air Force Western Test Range (AFWTR)
Object type
Payload
Rocket body
Debris
Shape & HBRUnknown
Radar Cross SectionLarge (>1 m²)

Expand to show TLE details & history

TLE from 3 weeks ago
0 ASBM-1
1 60422U 24143A   24318.48082507  .00000010  00000-0  00000-0 0  9991
2 60422  62.3349  67.4495 5340400 268.1111  33.0943  1.50426251  2880
Epoch: 2024-11-13T11:32Z
Definitive object data (Epoch: 2024-11-13T11:32:23.286Z)
Latitude0.00001°
Longitude-158.75684°
Altitude17,075.141 km
Speed4.648 km/s
True Right ascension04h 29m 40s
True Declination0° 00' 00"
Sunlit
Object was in daylight at TLE epoch
Visualization TLE readout
Latitude56.66665°
Longitude-32.02926°
Altitude39,372.169 km
Speed2.245 km/s
Apparent Right ascension13h 38m 23s
Apparent Declination56° 04' 54"
Sunlit
Object is in daylight
Visualization observer readout
Local Sidereal Time09:03:39
Azimuth45.755° ENE
Elevation43.476°
Doppler factor1
Orbital elements
Apogee altitude42,979.115 km
Perigee altitude8,613.979 km
Semi-major axis32,174.684 km
Eccentricity0.53404
Inclination62.3349°
RAAN67.4495°
Arg. of periapsis268.1111°
True anomaly92.01763°
Mean anomaly33.0943°
Eccentric anomaly59.44324°
Mean motion0.37607 °/min
BSTARUnknown
Orbital period957.26 mins
Loading maneuver chart data...
Loading historical data...
Loading historical data...
Loading historical data...
Loading historical data...
Loading historical data...
Loading historical data...
Loading historical data...
Other satellites on launch #143 in the year 2024 (2024-08-12 UTC)

ASBM-1 Visibility forecast

Observer location: undefined°, undefined

Span
Click to sort rows by Start time (UTC) header in descending order
Start Az.
Max El. time (UTC)
Max El. Az.
Max El.
End time (UTC)
End Az.
252 mins2024-12-02 11:16:57.777Z45.77° ENE2024-12-02 11:16:57.777Z45.77° ENE34.531°2024-12-02 15:28:57.777Z121.276° SE
68 mins2024-12-03 10:08:57.777Z244.079° WSW2024-12-03 11:16:57.777Z270.452° WNW28.075°2024-12-03 11:16:57.777Z270.452° WNW
|